Location: Davayat
(45.9471°N, 3.1105°E)
Time: 17:36:43
(UTC+00:00)

CZ-4 R/B - Pass Details

Date: 01 December 2020
Orbit: 533 x 597 km, 97.7° (Epoch: 17 January)

Event Time Altitude Azimuth Distance (km) Brightness Sun altitude
Rises 19:10:26 0° 197° (SSW) 2,712 5.1 -31.6°
Enters shadow 19:11:18 - 201° (SSW) 2,384 4.8 -31.8°
Exits shadow 19:17:18 20° 293° (WNW) 1,324 3.8 -32.8°
Drops below altitude 10° 19:19:23 10° 320° (NW) 1,880 4.5 -33.2°
Sets 19:21:54 0° 335° (NNW) 2,797 5.2 -33.6°
